This is the latest recevied weather packets stored in our database for station/object KD8OZS. If no packets are shown the sender has not sent any weather packets the latest 10 day(s).
| Time | Temp. | Humidity | Pressure | Rain* | Wind** | Luminosity | Snow |
|---|---|---|---|---|---|---|---|
| 1787797139 | 21.11° C | 83% | 1006.9 hPa | 0 mm | - | 0 W/m² | - |
| 1787796834 | 21.11° C | 81% | 1006.9 hPa | 0 mm | - | 0 W/m² | - |
| 1787796533 | 21.11° C | 82% | 1006.7 hPa | 0 mm | - | 0 W/m² | - |
| 1787796230 | 21.11° C | 82% | 1006.9 hPa | 0 mm | - | 0 W/m² | - |
| 1787795927 | 20.56° C | 83% | 1006.9 hPa | 0 mm | - | 0 W/m² | - |
| 1787795623 | 20.56° C | 83% | 1006.9 hPa | 0 mm | - | 0 W/m² | - |
| 1787795317 | 20.56° C | 83% | 1007 hPa | 0 mm | - | 0 W/m² | - |
| 1787795016 | 20.56° C | 86% | 1006.9 hPa | 0 mm | - | 0 W/m² | - |
| 1787794710 | 20° C | 85% | 1006.7 hPa | 0 mm | - | 0 W/m² | - |
| 1787794406 | 19.44° C | 87% | 1006.8 hPa | 0 mm | - | 0 W/m² | - |
| 1787794101 | 19.44° C | 89% | 1006.7 hPa | 0 mm | - | 0 W/m² | - |
| 1787793798 | 19.44° C | 90% | 1006.5 hPa | 0 mm | - | 0 W/m² | - |
| 1787793498 | 19.44° C | 90% | 1006.6 hPa | 0 mm | - | 0 W/m² | - |
| 1787793193 | 19.44° C | 90% | 1006.4 hPa | 0 mm | - | 0 W/m² | - |
| 1787792888 | 19.44° C | 90% | 1006.4 hPa | 0 mm | - | 0 W/m² | - |
| 1787792582 | 19.44° C | 90% | 1006.7 hPa | 0 mm | - | 0 W/m² | - |
| 1787792279 | 19.44° C | 90% | 1006.6 hPa | 0 mm | - | 0 W/m² | - |
| 1787791973 | 19.44° C | 90% | 1006.5 hPa | 0 mm | - | 0 W/m² | - |
| 1787791672 | 19.44° C | 90% | 1006.8 hPa | 0 mm | - | 0 W/m² | - |
| 1787791368 | 19.44° C | 91% | 1006.7 hPa | 0 mm | - | 0 W/m² | - |
| 1787791062 | 19.44° C | 90% | 1006.4 hPa | 0 mm | - | 0 W/m² | - |
| 1787790759 | 19.44° C | 90% | 1006.7 hPa | 0 mm | - | 0 W/m² | - |
| 1787790458 | 20° C | 90% | 1006.8 hPa | 0 mm | - | 0 W/m² | - |
| 1787790154 | 20° C | 90% | 1006.9 hPa | 0 mm | - | 0 W/m² | - |
| 1787789850 | 20° C | 89% | 1006.9 hPa | 0 mm | - | 0 W/m² | - |
* Rain latest hour (hover to see other rain measurements)
** Current wind speed in m/s (hover to see current wind gust speed)